| time (UTC) | temp F | wind direction | speed MPH | gust MPH | rain 1hr in | rain 24hr in | rain mn in | humidity % | barometer mb |
| 20260904001017 | 61 | 58 | 8.0 | 10.0 | 0.07 | 0.20 | 0.15 | 30 | 1060.2 |
| 20260904000017 | 62 | 61 | 8.0 | 10.0 | 0.07 | 0.20 | 0.14 | 30 | 1060.8 |
| 20260903235017 | 63 | 64 | 8.0 | 10.0 | 0.07 | 0.20 | 0.13 | 31 | 1061.4 |
| 20260903234037 | 63 | 67 | 8.0 | 10.0 | 0.07 | 0.20 | 0.12 | 31 | 1062.0 |
| 20260903233017 | 64 | 70 | 8.0 | 10.0 | 0.06 | 0.20 | 0.10 | 32 | 1062.6 |
| 20260903232017 | 65 | 73 | 8.0 | 10.0 | 0.06 | 0.20 | 0.09 | 32 | 1063.2 |
| 20260903231037 | 65 | 76 | 8.0 | 9.0 | 0.06 | 0.20 | 0.08 | 33 | 1063.8 |
| 20260903230017 | 66 | 79 | 8.0 | 9.0 | 0.07 | 0.20 | 0.07 | 33 | 1064.5 |
| 20260903225037 | 66 | 83 | 8.0 | 9.0 | 0.06 | 0.20 | 0.06 | 34 | 1065.1 |
| 20260903224017 | 67 | 86 | 8.0 | 9.0 | 0.05 | 0.20 | 0.05 | 34 | 1065.8 |
| 20260903223017 | 67 | 89 | 8.0 | 9.0 | 0.04 | 0.20 | 0.04 | 35 | 1066.4 |
| 20260903222018 | 60 | 158 | 1.0 | 2.0 | 0.00 | 0.21 | 0.00 | 94 | 1020.6 |
| 20260903221038 | 60 | 0.0 | 1.0 | 0.00 | 0.21 | 0.00 | 94 | 1020.8 | |
| 20260903220018 | 60 | 0.0 | 2.0 | 0.00 | 0.21 | 0.21 | 94 | 1020.7 | |
| 20260903215037 | 69 | 103 | 7.0 | 9.0 | 0.00 | 0.20 | 0.20 | 37 | 1069.2 |
| 20260903214017 | 69 | 107 | 7.0 | 8.0 | 0.00 | 0.20 | 0.20 | 38 | 1069.9 |
| 20260903213037 | 69 | 110 | 7.0 | 8.0 | 0.00 | 0.20 | 0.20 | 38 | 1070.6 |
| 20260903212017 | 60 | 0.0 | 1.0 | 0.00 | 0.21 | 0.21 | 93 | 1020.6 | |
| 20260903211017 | 60 | 0.0 | 0.0 | 0.00 | 0.21 | 0.21 | 94 | 1020.9 | |
| 20260903210017 | 60 | 0.0 | 0.0 | 0.00 | 0.21 | 0.21 | 94 | 1020.9 | |
| 20260903205018 | 60 | 0.0 | 0.0 | 0.00 | 0.21 | 0.21 | 94 | 1020.7 | |
| 20260903204037 | 60 | 0.0 | 0.0 | 0.00 | 0.21 | 0.21 | 93 | 1020.7 | |
| 20260903203017 | 70 | 133 | 6.0 | 8.0 | 0.00 | 0.20 | 0.20 | 42 | 1075.0 |
| 20260903202017 | 60 | 158 | 1.0 | 2.0 | 0.00 | 0.21 | 0.21 | 93 | 1020.6 |
| 20260903201017 | 60 | 158 | 2.0 | 4.0 | 0.00 | 0.21 | 0.21 | 93 | 1020.7 |
| 20260903200037 | 70 | 144 | 6.0 | 7.0 | 0.00 | 0.20 | 0.20 | 44 | 1077.3 |
| 20260903195017 | 70 | 148 | 6.0 | 7.0 | 0.00 | 0.20 | 0.20 | 45 | 1078.0 |
| 20260903194017 | 70 | 152 | 6.0 | 7.0 | 0.00 | 0.20 | 0.20 | 45 | 1078.8 |
| 20260903193017 | 69 | 156 | 6.0 | 7.0 | 0.00 | 0.20 | 0.20 | 46 | 1079.6 |
| 20260903192017 | 69 | 159 | 6.0 | 7.0 | 0.00 | 0.20 | 0.20 | 47 | 1080.3 |
| 20260903191016 | 69 | 163 | 5.0 | 7.0 | 0.00 | 0.20 | 0.20 | 47 | 1081.1 |
| 20260903190017 | 69 | 167 | 5.0 | 6.0 | 0.00 | 0.20 | 0.20 | 48 | 1081.9 |
| 20260903185017 | 68 | 171 | 5.0 | 6.0 | 0.00 | 0.20 | 0.20 | 49 | 1082.7 |
| 20260903184017 | 68 | 175 | 5.0 | 6.0 | 0.00 | 0.20 | 0.20 | 49 | 1083.4 |
| 20260903183017 | 67 | 179 | 5.0 | 6.0 | 0.00 | 0.20 | 0.20 | 50 | 1084.2 |
| 20260903182017 | 67 | 183 | 5.0 | 6.0 | 0.00 | 0.20 | 0.20 | 51 | 1085.0 |
| 20260903181017 | 66 | 187 | 5.0 | 6.0 | 0.00 | 0.20 | 0.20 | 51 | 1085.8 |
| 20260903180017 | 66 | 191 | 5.0 | 6.0 | 0.00 | 0.20 | 0.20 | 52 | 1086.5 |
| 20260903175017 | 65 | 195 | 5.0 | 6.0 | 0.00 | 0.20 | 0.20 | 52 | 1087.3 |
| 20260903174017 | 65 | 199 | 4.0 | 5.0 | 0.00 | 0.20 | 0.20 | 53 | 1088.1 |
| 20260903173017 | 64 | 203 | 4.0 | 5.0 | 0.00 | 0.20 | 0.20 | 54 | 1088.9 |
| 20260903172017 | 64 | 206 | 4.0 | 5.0 | 0.00 | 0.20 | 0.20 | 54 | 1089.6 |
| 20260903171018 | 61 | 90 | 1.0 | 3.0 | 0.02 | 0.21 | 0.21 | 92 | 1019.2 |
| 20260903170017 | 62 | 214 | 4.0 | 5.0 | 0.00 | 0.20 | 0.20 | 56 | 1091.2 |
| 20260903165017 | 62 | 218 | 4.0 | 5.0 | 0.00 | 0.20 | 0.20 | 56 | 1091.9 |
| 20260903164017 | 61 | 222 | 4.0 | 5.0 | 0.00 | 0.20 | 0.20 | 57 | 1092.7 |
| 20260903163017 | 60 | 226 | 4.0 | 5.0 | 0.00 | 0.20 | 0.20 | 58 | 1093.4 |
| 20260903162017 | 59 | 229 | 4.0 | 4.0 | 0.00 | 0.20 | 0.20 | 58 | 1094.2 |
| 20260903161017 | 59 | 233 | 4.0 | 4.0 | 0.00 | 0.20 | 0.20 | 59 | 1094.9 |
| 20260903160037 | 58 | 237 | 3.0 | 4.0 | 0.00 | 0.20 | 0.20 | 59 | 1095.7 |
| 20260903155017 | 57 | 241 | 3.0 | 4.0 | 0.00 | 0.20 | 0.20 | 60 | 1096.4 |
| 20260903154017 | 56 | 244 | 3.0 | 4.0 | 0.00 | 0.20 | 0.20 | 61 | 1097.1 |
| 20260903153017 | 55 | 248 | 3.0 | 4.0 | 0.00 | 0.20 | 0.20 | 61 | 1097.8 |
| 20260903152017 | 55 | 252 | 3.0 | 4.0 | 0.00 | 0.20 | 0.20 | 62 | 1098.6 |
| 20260903151017 | 54 | 255 | 3.0 | 4.0 | 0.00 | 0.20 | 0.20 | 63 | 1099.3 |
| 20260903150017 | 53 | 259 | 3.0 | 3.0 | 0.00 | 0.20 | 0.20 | 63 | 1100.0 |
| 20260903145017 | 52 | 262 | 3.0 | 3.0 | 0.00 | 0.20 | 0.20 | 64 | 1100.7 |
| 20260903144018 | 62 | 270 | 1.0 | 3.0 | 0.06 | 0.09 | 0.09 | 87 | 1020.2 |
| 20260903143019 | 63 | 293 | 3.0 | 6.0 | 0.06 | 0.08 | 0.08 | 86 | 1020.5 |
| 20260903143017 | 50 | 269 | 3.0 | 3.0 | 0.00 | 0.20 | 0.20 | 65 | 1102.0 |
| 20260903142017 | 63 | 225 | 3.0 | 4.0 | 0.06 | 0.07 | 0.07 | 84 | 1020.5 |
| 20260903141018 | 63 | 203 | 3.0 | 4.0 | 0.06 | 0.06 | 0.06 | 84 | 1020.3 |
| 20260903140018 | 63 | 225 | 4.0 | 6.0 | 0.05 | 0.05 | 0.05 | 82 | 1020.3 |
| 20260903135037 | 47 | 282 | 2.0 | 3.0 | 0.00 | 0.20 | 0.20 | 67 | 1104.7 |
| 20260903134038 | 64 | 225 | 3.0 | 4.0 | 0.03 | 0.03 | 0.03 | 80 | 1020.5 |
| 20260903133017 | 45 | 289 | 2.0 | 2.0 | 0.00 | 0.20 | 0.20 | 68 | 1105.9 |
| 20260903132019 | 66 | 225 | 4.0 | 8.0 | 0.01 | 0.01 | 0.01 | 73 | 1020.8 |
| 20260903132017 | 44 | 292 | 2.0 | 2.0 | 0.00 | 0.20 | 0.20 | 69 | 1106.5 |
| 20260903131017 | 68 | 225 | 6.0 | 11.0 | 0.00 | 0.00 | 0.00 | 70 | 1020.9 |
| 20260903130017 | 43 | 298 | 2.0 | 2.0 | 0.00 | 0.20 | 0.20 | 70 | 1107.7 |
| 20260903125037 | 42 | 301 | 2.0 | 2.0 | 0.00 | 0.20 | 0.20 | 70 | 1108.3 |
| 20260903125017 | 70 | 225 | 6.0 | 11.0 | 0.00 | 0.00 | 0.00 | 61 | 1020.6 |
| 20260903124017 | 70 | 203 | 5.0 | 10.0 | 0.00 | 0.00 | 0.00 | 61 | 1020.4 |
| 20260903123017 | 40 | 307 | 1.0 | 2.0 | 0.00 | 0.20 | 0.20 | 71 | 1109.4 |
| 20260903122038 | 71 | 248 | 9.0 | 16.0 | 0.00 | 0.00 | 0.00 | 60 | 1020.5 |
| 20260903122017 | 39 | 309 | 1.0 | 2.0 | 0.00 | 0.20 | 0.20 | 72 | 1110.0 |
| 20260903121018 | 73 | 248 | 9.0 | 18.0 | 0.00 | 0.00 | 0.00 | 56 | 1020.9 |
| 20260903120037 | 73 | 270 | 7.0 | 15.0 | 0.00 | 0.00 | 0.00 | 58 | 1020.9 |
| 20260903120017 | 38 | 315 | 1.0 | 2.0 | 0.00 | 0.20 | 0.20 | 72 | 1111.0 |
| 20260903115037 | 37 | 317 | 1.0 | 1.0 | 0.00 | 0.20 | 0.20 | 73 | 1111.5 |
| 20260903114017 | 37 | 320 | 1.0 | 1.0 | 0.00 | 0.20 | 0.20 | 73 | 1112.0 |
| 20260903113017 | 70 | 270 | 5.0 | 10.0 | 0.00 | 0.00 | 0.00 | 62 | 1020.9 |
| 20260903112037 | 70 | 248 | 6.0 | 13.0 | 0.00 | 0.00 | 0.00 | 59 | 1021.1 |
| 20260903112017 | 35 | 325 | 1.0 | 1.0 | 0.00 | 0.20 | 0.20 | 74 | 1113.0 |
| 20260903111017 | 35 | 327 | 1.0 | 1.0 | 0.00 | 0.20 | 0.20 | 74 | 1113.4 |
| 20260903110037 | 70 | 248 | 7.0 | 13.0 | 0.00 | 0.00 | 0.00 | 59 | 1021.1 |
| 20260903110017 | 34 | 329 | 1.0 | 1.0 | 0.00 | 0.20 | 0.20 | 75 | 1113.9 |
| 20260903105017 | 70 | 270 | 6.0 | 13.0 | 0.00 | 0.00 | 0.00 | 59 | 1021.1 |
| 20260903104017 | 33 | 333 | 1.0 | 1.0 | 0.00 | 0.20 | 0.20 | 76 | 1114.7 |
| 20260903103017 | 33 | 335 | 1.0 | 1.0 | 0.00 | 0.20 | 0.20 | 76 | 1115.1 |
| 20260903102017 | 32 | 337 | 1.0 | 1.0 | 0.00 | 0.20 | 0.20 | 76 | 1115.5 |
| 20260903101017 | 32 | 339 | 1.0 | 1.0 | 0.00 | 0.20 | 0.20 | 77 | 1115.9 |
| 20260903100017 | 32 | 341 | 1.0 | 1.0 | 0.00 | 0.20 | 0.20 | 77 | 1116.2 |
| 20260903095017 | 70 | 315 | 4.0 | 9.0 | 0.00 | 0.00 | 0.00 | 57 | 1021.4 |
| 20260903094017 | 71 | 248 | 6.0 | 10.0 | 0.00 | 0.00 | 0.00 | 54 | 1021.3 |
| 20260903093017 | 71 | 203 | 4.0 | 9.0 | 0.00 | 0.00 | 0.00 | 57 | 1021.4 |
| 20260903092017 | 31 | 347 | 0.0 | 0.0 | 0.00 | 0.20 | 0.20 | 78 | 1117.5 |
| 20260903091017 | 30 | 349 | 0.0 | 0.0 | 0.00 | 0.20 | 0.20 | 78 | 1117.8 |
| 20260903090017 | 30 | 350 | 0.0 | 0.0 | 0.00 | 0.20 | 0.20 | 78 | 1118.0 |
| 20260903085017 | 30 | 351 | 0.0 | 0.0 | 0.00 | 0.20 | 0.20 | 79 | 1118.3 |
| 20260903084017 | 68 | 248 | 4.0 | 9.0 | 0.00 | 0.00 | 0.00 | 62 | 1021.8 |
| 20260903083017 | 30 | 354 | 0.0 | 0.0 | 0.00 | 0.20 | 0.20 | 79 | 1118.7 |
| 20260903082037 | 30 | 355 | 0.0 | 0.0 | 0.00 | 0.20 | 0.20 | 79 | 1118.9 |
| 20260903081017 | 68 | 180 | 2.0 | 10.0 | 0.00 | 0.00 | 0.00 | 67 | 1021.3 |
| 20260903080017 | 67 | 158 | 4.0 | 7.0 | 0.00 | 0.00 | 0.00 | 67 | 1021.3 |
| 20260903075017 | 30 | 357 | 0.0 | 0.0 | 0.00 | 0.20 | 0.20 | 80 | 1119.4 |
| 20260903074017 | 30 | 358 | 0.0 | 0.0 | 0.00 | 0.20 | 0.20 | 80 | 1119.5 |
| 20260903073017 | 31 | 358 | 0.0 | 0.0 | 0.00 | 0.20 | 0.20 | 80 | 1119.7 |
| 20260903072017 | 31 | 359 | 0.0 | 0.0 | 0.00 | 0.20 | 0.20 | 80 | 1119.8 |
| 20260903071017 | 31 | 359 | 0.0 | 0.0 | 0.00 | 0.20 | 0.20 | 80 | 1119.8 |
| 20260903070017 | 58 | 0.0 | 0.0 | 0.00 | 0.00 | 0.00 | 92 | 1021.3 | |
| 20260903065057 | 32 | 360 | 0.0 | 0.0 | 0.00 | 0.20 | 0.20 | 80 | 1119.9 |
| 20260903065037 | 56 | 0.0 | 0.0 | 0.00 | 0.00 | 0.00 | 92 | 1021.5 | |
| 20260903064017 | 55 | 0.0 | 0.0 | 0.00 | 0.00 | 0.00 | 92 | 1021.6 | |
| 20260903063017 | 33 | 360 | 0.0 | 0.0 | 0.00 | 0.20 | 0.20 | 80 | 1120.0 |
| 20260903062016 | 52 | 0.0 | 0.0 | 0.00 | 0.00 | 0.00 | 92 | 1021.6 | |
| 20260903061017 | 34 | 360 | 0.0 | 0.0 | 0.00 | 0.20 | 0.20 | 80 | 1120.0 |
| 20260903060038 | 34 | 360 | 0.0 | 0.0 | 0.00 | 0.20 | 0.20 | 80 | 1119.9 |
| 20260903055017 | 35 | 359 | 0.0 | 0.0 | 0.00 | 0.20 | 0.20 | 80 | 1119.9 |
| 20260903054017 | 50 | 0.0 | 0.0 | 0.00 | 0.00 | 0.00 | 92 | 1021.2 | |
| 20260903053017 | 36 | 359 | 0.0 | 0.0 | 0.00 | 0.20 | 0.20 | 80 | 1119.7 |
| 20260903052057 | 36 | 358 | 0.0 | 0.0 | 0.00 | 0.20 | 0.20 | 80 | 1119.6 |
| 20260903051017 | 50 | 0.0 | 0.0 | 0.00 | 0.00 | 0.00 | 91 | 1021.1 | |
| 20260903050017 | 38 | 357 | 0.0 | 0.0 | 0.00 | 0.20 | 0.20 | 79 | 1119.3 |
| 20260903045017 | 38 | 356 | 0.0 | 0.0 | 0.00 | 0.20 | 0.20 | 79 | 1119.2 |
| 20260903044016 | 39 | 355 | 0.0 | 0.0 | 0.00 | 0.20 | 0.20 | 79 | 1119.0 |
| 20260903043017 | 40 | 354 | 0.0 | 0.0 | 0.00 | 0.20 | 0.20 | 79 | 1118.8 |
| 20260903042037 | 41 | 353 | 0.0 | 0.0 | 0.00 | 0.20 | 0.20 | 79 | 1118.6 |
| 20260903041018 | 50 | 0.0 | 0.0 | 0.00 | 0.00 | 0.00 | 91 | 1021.0 | |
| 20260903040017 | 42 | 351 | 0.0 | 0.0 | 0.00 | 0.20 | 0.20 | 78 | 1118.2 |
| 20260903035017 | 43 | 349 | 0.0 | 0.0 | 0.00 | 0.20 | 0.20 | 78 | 1117.9 |
| 20260903034017 | 44 | 348 | 0.0 | 0.0 | 0.00 | 0.20 | 0.20 | 78 | 1117.6 |
| 20260903033016 | 52 | 0.0 | 0.0 | 0.00 | 0.00 | 0.00 | 91 | 1021.1 | |
| 20260903032017 | 45 | 345 | 0.0 | 1.0 | 0.00 | 0.20 | 0.20 | 78 | 1117.0 |
| 20260903031017 | 46 | 344 | 0.0 | 1.0 | 0.00 | 0.20 | 0.20 | 77 | 1116.7 |
| 20260903030017 | 47 | 342 | 1.0 | 1.0 | 0.00 | 0.20 | 0.20 | 77 | 1116.4 |
| 20260903025017 | 48 | 340 | 1.0 | 1.0 | 0.00 | 0.20 | 0.20 | 77 | 1116.1 |
| 20260903024037 | 49 | 338 | 1.0 | 1.0 | 0.00 | 0.20 | 0.20 | 76 | 1115.7 |
| 20260903023017 | 50 | 336 | 1.0 | 1.0 | 0.00 | 0.20 | 0.20 | 76 | 1115.3 |
| 20260903022016 | 51 | 334 | 1.0 | 1.0 | 0.00 | 0.20 | 0.20 | 76 | 1114.9 |
| 20260903021037 | 52 | 332 | 1.0 | 1.0 | 0.00 | 0.20 | 0.20 | 75 | 1114.5 |
| 20260903020017 | 52 | 330 | 1.0 | 1.0 | 0.00 | 0.20 | 0.20 | 75 | 1114.1 |
| 20260903015017 | 53 | 328 | 1.0 | 1.0 | 0.01 | 0.20 | 0.20 | 75 | 1113.7 |
| 20260903014016 | 56 | 0.0 | 0.0 | 0.00 | 0.00 | 0.00 | 89 | 1021.5 | |
| 20260903013017 | 55 | 323 | 1.0 | 1.0 | 0.03 | 0.20 | 0.20 | 74 | 1112.7 |
| 20260903012017 | 56 | 321 | 1.0 | 1.0 | 0.04 | 0.20 | 0.20 | 73 | 1112.3 |
| 20260903011019 | 57 | 0.0 | 0.0 | 0.00 | 0.00 | 0.00 | 88 | 1021.5 | |
| 20260903011017 | 57 | 318 | 1.0 | 1.0 | 0.05 | 0.20 | 0.20 | 73 | 1111.8 |
| 20260903010017 | 57 | 316 | 1.0 | 1.0 | 0.06 | 0.20 | 0.20 | 73 | 1111.3 |
| 20260903005017 | 58 | 313 | 1.0 | 2.0 | 0.06 | 0.20 | 0.19 | 72 | 1110.8 |
| 20260903004037 | 59 | 311 | 1.0 | 2.0 | 0.06 | 0.20 | 0.18 | 72 | 1110.2 |
| 20260903003017 | 60 | 308 | 1.0 | 2.0 | 0.07 | 0.20 | 0.17 | 71 | 1109.7 |
| 20260903002017 | 61 | 305 | 2.0 | 2.0 | 0.07 | 0.20 | 0.16 | 71 | 1109.1 |